Location: Newark
(42.8481°N, 0.4872°E)
Time: 08:18:04
(UTC+00:00)

Transit 2A Rocket - Pass Details

Date: 29 October 2020
Orbit: 588 x 914 km, 66.7° (Epoch: 29 November)

Event Time Altitude Azimuth Distance (km) Brightness Sun altitude
Rises 17:03:19 0° 335° (NNW) 3,315 8.4 -2.5°
Reaches altitude 10° 17:06:09 10° 346° (NNW) 2,323 7.5 -3.0°
Maximum altitude 17:10:46 30° 46° (NE) 1,296 5.8 -3.8°
Drops below altitude 10° 17:15:00 10° 108° (ESE) 2,124 6.8 -4.5°
Sets 17:17:28 0° 119° (ESE) 2,983 7.6 -5.0°
